{"data":{"norad_id":49738,"intl_designator":"2021-115Q","name":"STARLINK-3143","alt_names":[],"object_type":"PAYLOAD","status":"ACTIVE","operator":null,"country":"US","launch_date":"2021-12-02","launch_site_code":"AFETR","launch_vehicle":null,"mission":null,"orbit_class":"UNKNOWN","rcs_meters":null,"size_class":null,"mass_kg":null,"dimensions":null,"purposes":["comms"],"wikipedia_slug":null,"has_3d_model":false,"image_url":null,"decayed_at":null,"tle_current":{"epoch":"2026-05-25T01:16:48.360864Z","epoch_age_seconds":64352,"freshness":"FRESH","line1":"1 49738U 21115Q   26145.05333751  .00013198  00000+0  81700-3 0  9996","line2":"2 49738  53.2142 166.3095 0002394  47.2116 312.9078 15.10109624247067","mean_motion":15.10109624,"eccentricity":0.0002394,"inclination_deg":53.2142,"raan_deg":166.3095,"arg_perigee_deg":47.2116,"mean_anomaly_deg":312.9078,"bstar":0.000817,"rev_number":24706,"period_min":95.357315595785,"perigee_km":534.21016333922,"apogee_km":537.52058767661,"semimajor_km":6914.0023755079,"source":"CELESTRAK","updated_at":"2026-05-25T13:38:16.833901Z"}}}